DW2213 Weather Reports


time (UTC)temp
F
wind
direction
speed
knots
gust
knots
rain 1hr
in
rain 24hr
in
rain mn
in
humidity
%
barometer
mb
20260510140304 77 43 7.8 12.2 0.00 0.01 0.00 47 1009.8
20260510135804 78 18 7.8 11.3 0.00 0.01 0.00 48 1009.9
20260510135306 78 83 5.2 10.4 0.00 0.01 0.00 51 1010.0
20260510134806 78 24 7.0 11.3 0.00 0.01 0.00 49 1010.1
20260510134305 78 42 8.7 13.0 0.00 0.01 0.00 51 1010.3
20260510133304 78 11 7.0 11.3 0.00 0.01 0.00 50 1010.3
20260510132804 78 8 6.1 12.2 0.00 0.01 0.00 53 1010.3
20260510131804 78 18 7.0 11.3 0.00 0.01 0.00 53 1010.6
20260510130805 77 91 6.1 8.7 0.00 0.01 0.00 50 1010.8
20260510130304 77 45 8.7 11.3 0.00 0.01 0.00 50 1010.9
20260510125805 77 57 6.1 10.4 0.00 0.01 0.00 52 1011.0
20260510125306 77 4 6.1 10.4 0.00 0.02 0.00 52 1011.1
20260510124805 77 91 4.3 7.0 0.00 0.02 0.00 54 1011.1
20260510124304 75 107 4.3 8.7 0.00 0.03 0.00 58 1011.2
20260510123304 74 52 5.2 8.7 0.00 0.04 0.00 63 1011.2
20260510122804 74 53 7.8 11.3 0.00 0.05 0.00 63 1011.3
20260510122306 75 38 6.1 10.4 0.00 0.06 0.00 61 1011.3
20260510121805 75 29 6.1 10.4 0.00 0.07 0.00 60 1011.4
20260510121305 75 32 5.2 10.4 0.00 0.08 0.00 60 1011.4
20260510120805 75 30 5.2 7.8 0.00 0.10 0.00 60 1011.4
20260510120305 76 48 5.2 8.7 0.00 0.12 0.00 57 1011.6
20260510115804 76 69 4.3 10.4 0.00 0.14 0.00 57 1011.7
20260510115306 76 109 4.3 7.8 0.00 0.15 0.00 59 1011.7
20260510114805 76 29 4.3 7.8 0.00 0.17 0.00 60 1011.8
20260510113804 75 55 6.1 8.7 0.00 0.22 0.00 59 1011.9
20260510113304 75 30 5.2 10.4 0.00 0.24 0.00 61 1011.9
20260510112804 75 19 3.5 7.8 0.00 0.26 0.00 60 1011.9
20260510112306 75 88 4.3 10.4 0.00 0.26 0.00 61 1011.9
20260510111804 74 100 4.3 8.7 0.00 0.28 0.00 61 1012.0
20260510110804 75 52 5.2 10.4 0.00 0.30 0.00 63 1012.1
20260510110305 74 27 4.3 7.0 0.00 0.31 0.00 63 1012.2
20260510105804 74 1 4.3 7.8 0.00 0.32 0.00 62 1012.1
20260510105306 74 23 2.6 6.1 0.00 0.34 0.00 62 1012.1
20260510104804 73 4 3.5 5.2 0.00 0.34 0.00 63 1012.2
20260510104305 74 19 3.5 6.1 0.00 0.35 0.00 62 1012.3
20260510103805 75 0 1.7 7.8 0.00 0.36 0.00 63 1012.3
20260510103305 74 74 2.6 5.2 0.00 0.38 0.00 65 1012.4
20260510102804 74 22 2.6 7.0 0.00 0.42 0.00 65 1012.4
20260510102306 73 13 2.6 7.0 0.00 0.43 0.00 66 1012.5
20260510101804 73 20 3.5 6.1 0.00 0.44 0.00 66 1012.6
20260510101304 73 19 3.5 7.0 0.00 0.44 0.00 67 1012.6
20260510100305 73 42 1.7 5.2 0.00 0.46 0.00 67 1012.6
20260510095804 73 70 3.5 6.1 0.00 0.48 0.00 69 1012.6
20260510095306 73 67 2.6 7.0 0.00 0.48 0.00 68 1012.7
20260510094804 73 89 1.7 4.3 0.00 0.48 0.00 66 1012.7
20260510093804 73 103 1.7 5.2 0.00 0.49 0.00 66 1012.8
20260510093304 72 116 1.7 4.3 0.00 0.51 0.00 66 1012.9
20260510092804 71 116 1.7 4.3 0.00 0.57 0.00 69 1012.9
20260510092306 71 85 3.5 5.2 0.00 0.59 0.00 71 1013.0
20260510091805 70 113 0.9 2.6 0.00 0.59 0.00 72 1013.0
20260510091304 69 114 1.7 4.3 0.00 0.59 0.00 73 1013.0
20260510090805 69 113 0.9 4.3 0.00 0.60 0.00 74 1013.0
20260510090304 70 113 2.6 4.3 0.00 0.60 0.00 72 1013.0
20260510085805 69 153 0.9 2.6 0.00 0.62 0.00 74 1013.0
20260510085306 69 184 0.9 1.7 0.00 0.62 0.00 74 1013.1
20260510084805 69 184 1.7 2.6 0.00 0.64 0.00 72 1013.2
20260510084304 69 184 0.0 2.6 0.00 0.64 0.00 72 1013.2
20260510083305 69 184 0.9 2.6 0.00 0.68 0.00 72 1013.2
20260510082805 69 184 1.7 2.6 0.00 0.70 0.00 72 1013.2
20260510082306 69 184 0.9 1.7 0.00 0.72 0.00 74 1013.2
20260510081805 69 184 1.7 2.6 0.00 0.73 0.00 74 1013.1
20260510080305 67 225 0.9 2.6 0.00 0.80 0.00 76 1013.2
20260510075805 67 225 0.0 1.7 0.00 0.82 0.00 77 1013.3
20260510075306 67 225 0.9 1.7 0.00 0.84 0.00 78 1013.3
20260510074304 66 225 1.7 2.6 0.00 0.86 0.00 82 1013.3
20260510073804 65 226 0.9 2.6 0.00 0.86 0.00 81 1013.3
20260510073305 65 226 1.7 2.6 0.00 0.87 0.00 81 1013.3
20260510072805 64 226 0.0 0.9 0.00 0.88 0.00 84 1013.4
20260510072306 64 226 0.0 1.7 0.00 0.88 0.00 84 1013.4
20260510071804 63 227 0.0 0.9 0.00 0.90 0.00 85 1013.3
20260510071304 63 229 0.9 2.6 0.00 0.90 0.00 86 1013.3
20260510070805 63 229 0.0 1.7 0.00 0.90 0.00 87 1013.3
20260510070304 62 229 0.9 1.7 0.00 0.90 0.00 87 1013.3
20260510065804 62 229 0.9 0.9 0.00 0.90 0.00 88 1013.2
20260510065306 61 229 0.0 2.6 0.00 0.90 0.00 88 1013.1
20260510064805 61 229 1.7 2.6 0.00 0.90 0.00 89 1013.1
20260510064304 60 229 0.0 2.6 0.00 0.90 0.00 89 1013.1
20260510063804 60 229 0.0 0.9 0.00 0.90 0.00 89 1013.0
20260510062804 60 229 1.7 2.6 0.00 0.90 0.00 89 1012.8
20260510062307 59 229 0.9 2.6 0.00 0.90 0.00 89 1012.8
20260510061805 59 229 0.9 2.6 0.00 0.90 0.00 89 1012.8
20260510061304 59 229 1.7 2.6 0.00 0.90 0.00 89 1012.8
20260510060304 59 229 0.9 2.6 0.00 0.90 0.00 89 1012.7
20260510055804 59 229 0.9 2.6 0.00 0.90 0.00 89 1012.7
20260510055306 58 229 0.0 2.6 0.00 0.90 0.00 89 1012.6
20260510054804 58 229 1.7 2.6 0.00 0.90 0.00 89 1012.6
20260510054304 58 229 0.9 2.6 0.00 0.90 0.00 89 1012.5
20260510053804 58 229 1.7 2.6 0.00 0.90 0.00 89 1012.5
20260510053305 58 229 0.9 1.7 0.00 0.90 0.00 89 1012.4
20260510052804 58 229 0.0 0.9 0.00 0.90 0.00 89 1012.3
20260510052306 58 229 1.7 2.6 0.00 0.90 0.00 89 1012.2
20260510051805 58 229 0.0 2.6 0.00 0.90 0.00 89 1012.1
20260510051304 58 229 0.9 0.9 0.00 0.90 0.00 89 1012.1
20260510050805 58 229 0.0 0.9 0.00 0.90 0.00 89 1012.0
20260510050304 58 229 0.9 2.6 0.00 0.90 0.00 89 1012.0
20260510045804 58 229 0.0 1.7 0.00 0.90 0.00 89 1012.0
20260510045306 58 229 0.0 1.7 0.00 0.90 0.00 89 1012.0
20260510044804 58 229 0.9 2.6 0.00 0.90 0.00 89 1012.1
20260510043804 58 230 0.9 2.6 0.00 0.90 0.00 89 1012.2
20260510043304 58 230 0.9 2.6 0.00 0.90 0.00 89 1012.2
20260510042804 58 229 0.0 2.6 0.00 0.90 0.00 89 1012.2
20260510041804 58 229 0.9 2.6 0.00 0.90 0.00 89 1012.2
20260510041304 58 229 0.9 1.7 0.00 0.90 0.00 89 1012.2
20260510040804 58 229 0.0 1.7 0.00 0.90 0.00 89 1012.1
20260510035306 59 230 1.7 2.6 0.00 0.90 0.00 89 1012.0
20260510034804 59 230 1.7 4.3 0.00 0.90 0.00 89 1011.9
20260510033804 59 230 2.6 4.3 0.00 0.90 0.00 89 1011.8
20260510032804 59 231 2.6 6.1 0.00 0.90 0.00 90 1011.8
20260510032306 59 229 0.9 6.1 0.00 0.90 0.00 90 1011.7
20260510031804 59 225 2.6 6.1 0.00 0.90 0.00 90 1011.8
20260510031304 59 216 1.7 4.3 0.00 0.90 0.00 90 1011.8
20260510030304 59 234 1.7 4.3 0.00 0.90 0.00 91 1011.8
20260510025306 58 234 1.7 2.6 0.00 0.90 0.00 91 1011.7
20260510024804 58 234 0.9 2.6 0.00 0.90 0.00 91 1011.8
20260510024304 58 234 0.9 2.6 0.00 0.90 0.00 91 1011.8
20260510023805 58 234 0.9 2.6 0.00 0.90 0.00 90 1011.8
20260510023304 58 234 0.9 2.6 0.00 0.90 0.00 90 1011.8
20260510022804 58 234 0.0 0.0 0.00 0.90 0.00 90 1011.7
20260510022306 58 234 0.0 0.9 0.00 0.90 0.00 90 1011.8
20260510021804 59 234 0.0 1.7 0.00 0.90 0.00 90 1011.9
20260510021304 59 234 0.0 0.0 0.00 0.90 0.00 90 1011.9
20260510020804 59 234 0.0 0.0 0.00 0.90 0.00 90 1011.9
20260510020304 59 234 0.0 1.7 0.00 0.90 0.00 90 1011.9
20260510015306 59 234 0.0 2.6 0.00 0.90 0.00 90 1011.8
20260510014804 59 233 0.0 0.9 0.00 0.90 0.00 89 1011.8
20260510013804 59 244 0.9 2.6 0.00 0.90 0.00 90 1011.8
20260510013303 59 244 0.9 2.6 0.00 0.90 0.00 90 1011.8
20260510012804 59 244 0.0 1.7 0.00 0.90 0.00 90 1011.8
20260510012306 59 244 0.0 4.3 0.00 0.90 0.00 90 1011.8
20260510011803 59 242 0.9 2.6 0.00 0.90 0.00 90 1011.8
20260510011304 59 243 0.9 2.6 0.00 0.90 0.00 90 1011.9
20260510010804 60 243 0.0 4.3 0.00 0.90 0.00 90 1011.9
20260510010304 60 244 1.7 2.6 0.00 0.90 0.00 90 1012.0
20260510005804 60 244 1.7 2.6 0.00 0.90 0.00 90 1012.2
20260510005306 60 244 0.0 1.7 0.00 0.90 0.00 90 1012.2
20260510004805 60 244 0.9 1.7 0.00 0.90 0.00 90 1012.3
20260510004304 60 244 0.9 2.6 0.00 0.90 0.00 90 1012.3
20260510003803 61 244 0.0 1.7 0.00 0.90 0.00 90 1012.3
20260510003304 61 249 0.9 2.6 0.00 0.90 0.00 90 1012.4
20260510002804 61 244 1.7 2.6 0.00 0.90 0.00 90 1012.4
20260510002307 61 244 1.7 2.6 0.00 0.90 0.00 90 1012.5
20260510001804 61 244 0.9 2.6 0.00 0.90 0.00 90 1012.6
20260509235804 61 244 0.0 1.7 0.00 0.90 0.00 90 1012.6
20260509235306 61 244 0.0 2.6 0.00 0.90 0.00 90 1012.6
20260509234804 61 244 0.9 1.7 0.00 0.90 0.00 90 1012.7
20260509234304 61 244 0.9 2.6 0.00 0.90 0.00 91 1012.7
20260509233804 61 244 0.9 2.6 0.00 0.90 0.00 91 1012.7
20260509233304 61 244 0.0 0.0 0.00 0.90 0.00 90 1012.6
20260509232804 61 244 0.0 0.0 0.00 0.90 0.00 90 1012.7
20260509232306 61 244 0.0 0.0 0.00 0.90 0.00 90 1012.8
20260509231804 61 244 0.0 0.9 0.00 0.90 0.00 90 1012.8
20260509230804 61 244 0.9 1.7 0.00 0.90 0.00 90 1012.8
20260509230304 61 244 0.9 2.6 0.00 0.90 0.00 90 1012.9
20260509225804 61 245 0.0 0.0 0.00 0.90 0.00 90 1012.8
20260509225306 61 245 0.0 0.0 0.00 0.90 0.00 90 1012.7
20260509224303 61 245 0.0 0.0 0.00 0.90 0.00 90 1012.9
20260509223804 61 245 0.0 0.0 0.00 0.90 0.00 90 1013.1
20260509223304 61 246 0.0 0.0 0.00 0.90 0.00 90 1013.2
20260509222804 61 246 0.0 0.0 0.00 0.90 0.00 90 1013.2
20260509222307 62 246 0.0 0.9 0.00 0.90 0.00 89 1013.1
20260509221804 62 246 0.9 1.7 0.00 0.90 0.00 89 1013.1
20260509221304 62 246 0.0 0.0 0.00 0.90 0.00 89 1013.1
20260509220304 62 246 0.9 1.7 0.00 0.90 0.00 89 1013.3
20260509215804 62 253 1.7 5.2 0.00 0.90 0.90 89 1013.4
20260509215306 62 246 2.6 5.2 0.00 0.90 0.90 88 1013.4
20260509214804 62 0 0.9 2.6 0.00 0.90 0.90 88 1013.4
20260509214303 62 31 0.9 2.6 0.00 0.90 0.90 88 1013.2
20260509213804 62 10 0.9 2.6 0.00 0.90 0.90 88 1013.0
20260509213304 62 140 0.0 0.9 0.00 0.90 0.90 88 1012.8
20260509212803 62 140 0.9 5.2 0.00 0.90 0.90 88 1012.6
20260509212306 63 18 2.6 5.2 0.00 0.90 0.90 87 1012.2
20260509211303 63 61 2.6 6.1 0.00 0.90 0.90 87 1012.3
20260509210303 63 137 0.9 1.7 0.00 0.90 0.90 87 1012.8
20260509205803 63 5 1.7 2.6 0.00 0.90 0.90 86 1012.8
20260509205307 64 136 2.6 4.3 0.00 0.90 0.90 86 1012.7
20260509204804 63 135 2.6 4.3 0.00 0.90 0.90 86 1012.7
20260509204303 63 135 1.7 2.6 0.00 0.90 0.90 86 1012.5
20260509203304 63 135 0.0 0.0 0.00 0.90 0.90 86 1012.7
20260509202804 64 135 0.0 0.9 0.00 0.90 0.90 86 1012.7
20260509202306 64 135 0.9 1.7 0.00 0.90 0.90 86 1012.5
20260509201303 63 136 0.9 1.7 0.00 0.90 0.90 86 1012.4
20260509200804 63 136 0.9 2.6 0.00 0.90 0.90 86 1012.4
20260509200304 63 135 0.9 1.7 0.00 0.90 0.90 86 1012.3
20260509195306 63 135 0.0 0.0 0.00 0.90 0.90 86 1012.2
20260509194804 64 135 0.0 0.0 0.00 0.90 0.90 86 1011.9
20260509193804 64 135 0.0 0.9 0.00 0.90 0.90 85 1012.0
20260509192804 64 135 1.7 2.6 0.00 0.90 0.90 85 1011.7
20260509192306 64 135 0.9 1.7 0.00 0.90 0.90 85 1011.7
20260509191804 64 135 0.9 4.3 0.00 0.90 0.90 85 1011.6
20260509190803 64 135 1.7 2.6 0.00 0.90 0.90 84 1011.3
20260509190304 64 135 0.9 2.6 0.00 0.90 0.90 84 1011.2
20260509185804 64 135 0.9 2.6 0.00 0.90 0.90 84 1011.1
20260509185306 64 135 1.7 2.6 0.00 0.90 0.90 84 1011.2
20260509184303 65 5 1.7 4.3 0.00 0.90 0.90 83 1011.1
20260509183804 65 32 1.7 6.1 0.00 0.90 0.90 83 1011.0
20260509183304 65 136 4.3 5.2 0.00 0.90 0.90 83 1011.0
20260509182803 65 129 1.7 5.2 0.00 0.90 0.90 82 1011.0
20260509182306 65 11 2.6 6.1 0.00 0.90 0.90 82 1010.9
20260509181303 65 72 4.3 7.0 0.00 0.90 0.90 82 1010.3
20260509180804 65 17 1.7 6.1 0.00 0.90 0.90 81 1010.4
20260509180304 66 10 3.5 6.1 0.00 0.90 0.90 81 1010.4
20260509175804 66 62 1.7 4.3 0.00 0.90 0.90 81 1010.4
20260509175306 66 0 1.7 5.2 0.00 0.90 0.90 81 1010.4
20260509174804 66 62 4.3 5.2 0.00 0.90 0.90 80 1010.3
20260509174305 66 119 4.3 5.2 0.00 0.90 0.90 80 1010.5
20260509173805 66 119 2.6 4.3 0.00 0.90 0.90 80 1010.6
20260509173304 66 0 1.7 5.2 0.00 0.90 0.90 80 1010.6
20260509172806 66 21 3.5 5.2 0.00 0.90 0.90 80 1010.6
20260509172306 66 29 1.7 4.3 0.00 0.90 0.90 79 1010.6
20260509171305 67 109 1.7 5.2 0.00 0.90 0.90 78 1010.4
20260509170805 67 117 2.6 6.1 0.00 0.90 0.90 77 1010.5
20260509165306 68 76 2.6 7.0 0.00 0.90 0.90 76 1010.3
20260509164805 68 48 2.6 10.4 0.00 0.90 0.90 75 1010.2
20260509164305 68 80 1.7 7.0 0.00 0.90 0.90 76 1010.2
20260509163805 68 37 3.5 6.1 0.00 0.90 0.90 75 1010.1
20260509163305 68 23 2.6 7.0 0.00 0.90 0.90 77 1010.1
20260509162805 67 16 3.5 7.8 0.00 0.90 0.90 78 1010.0
20260509162307 67 24 2.6 8.7 0.01 0.90 0.90 77 1010.1
20260509161805 68 12 3.5 6.1 0.01 0.90 0.90 77 1010.2
20260509160804 68 4 2.6 7.0 0.01 0.90 0.90 76 1010.1
20260509160305 68 64 2.6 6.1 0.01 0.90 0.90 77 1010.1
20260509155805 68 22 4.3 8.7 0.01 0.90 0.90 78 1010.2
20260509155306 68 18 4.3 7.8 0.01 0.90 0.90 79 1010.3
20260509154805 67 26 1.7 7.0 0.01 0.90 0.90 81 1010.4
20260509154304 67 16 2.6 5.2 0.01 0.90 0.90 81 1010.3
20260509153804 66 11 4.3 8.7 0.01 0.90 0.90 80 1010.3
20260509153304 67 54 2.6 6.1 0.01 0.90 0.90 80 1010.3
20260509152805 67 0 4.3 7.0 0.01 0.90 0.90 81 1010.3
20260509151804 67 45 0.9 2.6 0.00 0.89 0.89 80 1010.0
20260509151305 67 24 3.5 4.3 0.00 0.89 0.89 80 1010.1
20260509150805 67 1 2.6 7.0 0.00 0.89 0.89 80 1010.1
20260509150305 67 309 1.7 2.6 0.00 0.89 0.89 81 1010.2
20260509145805 68 339 1.7 4.3 0.00 0.89 0.89 81 1010.2
20260509145306 68 314 0.0 1.7 0.00 0.89 0.89 82 1010.1
20260509144805 67 289 2.6 4.3 0.00 0.89 0.89 83 1010.1
20260509144305 67 21 2.6 2.6 0.00 0.89 0.89 84 1010.2
20260509143804 66 298 0.0 2.6 0.00 0.89 0.89 85 1010.2
20260509143304 66 332 1.7 4.3 0.00 0.89 0.89 86 1010.2
20260509142805 66 310 0.0 2.6 0.00 0.89 0.89 87 1010.2
20260509142307 66 277 1.7 4.3 0.00 0.89 0.89 88 1010.2
20260509141804 65 223 1.7 4.3 0.00 0.89 0.89 91 1010.3
20260509141305 64 222 2.6 4.3 0.00 0.89 0.89 91 1010.3